SCP
0 0 0 0 0 0 0 0 0 0 0 0 0 0 0 0 0 0 0 0 0 0 0 0 0 0 0 0 0 0 0 0 0 0 0 0 0 0 0 0 0 0 0 0
0 0 0 0 0 0 0 0 0 0 0 0 0 0 0 0 0 0 0 0 0 0 0 0 0 0 0 0 0 0 0 0 0 0 0 0 0 0 0 0 0 0 0 0
0 0 0 0 0 0 0 0 0 0 0 0 0 -0 0 0 0 0 0 0 0 0 0 0 0 0 0 0 0 0 0 0 0 0 0 0 0 0 0 0 0 0 0 0
0 0 0 0 0 0 0 0 0 0 0 0 0 -0 0 0 0 0 0 0 0 0 0 0 0 0 0 0 0 0 0 0 0 0 0 0 0 0 0 0 0 0 0 0
0 0 0 0 0 0 0 0 0 0 0 0 0 0 -0 0 0 0 0 0 0 0 0 0 0 0 0 0 0 0 0 0 0 0 0 0 0 0 0 0 0 0 0 0
0 0 0 0 0 0 0 0 0 0 0 0 0 0 0 0 -0 0 0 0 0 0 0 0 0 0 0 0 0 0 0 0 0 0 0 0 0 0 0 0 0 0 0 0
0 0 0 0 0 0 0 0 0 0 0 0 0 0 0 0 0 0 0 0 0 0 0 0 0 0 0 0 0 0 0 0 0 0 0 0 0 0 0 0 0 0 0 0
0 0 0 0 0 0 0 0 0 0 0 0 0 0 0 0 0 0 0 0 0 0 0 0 0 0 0 0 0 0 0 0 0 0 0 0 0 0 0 0 0 0 0 0
0 0 0 0 0 0 0 0 0 0 0 0 0 0 0 0 0 0 0 0 0 0 0 0 0 0 0 0 0 0 0 0 0 0 0 0 0 0 0 0 0 0 0 0
0 0 0 0 0 0 0 0 0 0 0 0 0 0 0 0 0 0 0 0 0 0 0 0 0 0 0 0 0 0 0 0 0 0 0 0 0 0 0 0 0 0 0 0
0 0 0 0 0 0 0 0 0 0 0 0 0 0 0 0 0 0 0 0 0 0 0 0 0 0 0 0 0 0 0 0 0 0 0 0 0 0 0 0 0 0 0 0
0 0 0 0 0 0 0 0 0 0 0 0 0 0 0 0 0 0 0 0 0 0 0 0 0 0 0 0 0 0 0 0 0 0 0 0 0 0 0 0 0 0 0 0
0 0 0 0 0 0 0 0 0 0 0 0 0 0 0 0 0 0 0 0 0 0 0 0 0 0 0 0 0 0 0 0 0 0 0 0 0 0 0 0 0 0 0 0
0 0 0 0 0 0 0 0 0 0 0 0 0 0 0 0 0 0 0 0 0 0 0 0 0 0 0 0 0 0 0 0 0 0 0 0 0 0 0 0 0 0 0 0
0 0 0 0 0 0 0 0 0 0 0 0 0 0 0 0 0 0 0 0 0 0 0 -0 0 0 0 0 0 0 0 0 0 0 0 0 0 0 0 0 0 0 0 0
0 0 0 0 0 0 0 0 0 0 0 0 0 0 0 0 0 0 0 0 0 0 0 0 0 0 0 0 0 0 0 0 0 0 0 0 0 0 0 0 0 0 0 0
0 0 0 0 0 0 0 0 0 0 0 0 0 0 0 0 0 0 0 0 0 0 0 0 0 0 0 0 0 0 0 0 0 0 0 0 0 0 0 0 0 0 0 0
0 0 0 0 0 0 0 0 0 0 0 0 0 0 0 0 0 0 0 0 0 0 0 0 0 0 0 0 0 0 0 0 0 0 0 0 0 0 0 0 0 0 0 0
0 0 0 0 0 0 0 0 0 0 0 0 0 0 0 0 0 0 0 0 0 0 0 0 0 0 0 0 0 0 0 0 0 0 0 0 0 0 0 0 0 0 0 0
0 0 0 0 0 0 0 0 0 0 0 0 0 0 0 0 0 0 0 0 0 0 0 0 0 0 0 0 0 0 0 0 0 0 0 0 0 0 0 0 0 0 0 0
0 0 0 0 0 0 0 0 0 0 0 0 0 0 0 0 0 0 0 0 0 0 0 0 0 0 0 0 0 0 0 -0 -0 0 0 0 0 0 0 0 0 0 0 0
0 0 0 0 0 0 0 0 0 0 0 0 0 0 0 0 0 0 0 0 0 0 0 0 0 0 0 0 -0 0 0 0 0 0 0 0 0 0 0 0 0 0 0 0
0 0 0 0 0 0 0 0 0 0 0 0 0 0 0 0 0 0 0 0 0 0 0 0 0 0 0 -0 -0 0 0 0 0 0 0 0 0 0 0 0 0 0 0 0
0 0 0 0 0 0 0 0 0 0 0 0 0 0 0 0 0 0 0 0 0 0 0 0 -0 -0 -0 -0 0 0 0 0 0 0 0 0 0 0 0 0 0 0 0 0
0 0 0 0 0 0 0 0 0 0 0 0 0 0 0 0 0 0 0 0 0 0 0 -0 -0 -0 -0 0 0 0 0 0 0 0 0 0 0 0 0 0 0 0 0 0
0 0 0 0 0 0 0 0 0 0 0 0 0 0 0 0 0 0 0 0 -0 0 0 0 0 0 0 0 0 0 0 0 0 0 0 0 0 0 0 0 0 0 0 0
Wind_Speed_500mb
7 8 14 19 18 8 12 8 6 5 3 7 15 16 22 43 42 53 59 62 61 64 64 61 61 59 60 65 74 76 78 81 83 86 84 88 85 83 78 75 73 70 67 67
8 12 18 8 8 7 7 8 6 7 1 9 9 20 19 27 39 61 67 74 75 71 59 35 30 52 65 63 66 74 77 79 82 86 87 88 84 84 81 77 73 75 73 73
14 8 15 14 8 11 7 10 9 12 5 4 10 16 12 12 31 51 55 60 56 52 50 45 39 33 46 63 66 68 75 78 78 82 90 97 92 89 85 83 80 78 73 82
9 5 14 8 10 12 10 14 9 7 6 8 4 11 11 11 18 16 54 51 54 58 58 43 26 27 36 41 54 63 66 76 80 84 90 91 95 98 96 88 85 79 77 72
16 19 11 10 12 14 12 9 8 6 7 5 5 3 14 6 12 24 29 34 24 20 16 15 18 20 19 30 36 46 54 64 77 84 84 85 92 96 93 82 88 86 81 78
12 4 12 17 6 11 17 13 14 9 5 7 15 15 10 9 14 8 5 14 15 15 14 14 16 15 10 12 16 26 42 46 60 75 82 84 83 88 91 93 92 86 82 78
4 6 5 10 13 7 8 14 3 6 3 13 6 5 15 16 14 13 20 31 19 25 19 12 14 13 10 5 6 13 25 39 48 58 66 70 72 77 84 85 84 83 76 72
16 9 17 9 14 17 15 16 12 16 9 8 5 13 12 9 16 24 18 24 26 19 12 10 9 7 7 9 12 14 17 21 26 33 42 50 57 64 72 78 79 75 74 71
13 12 2 5 9 23 12 14 13 13 6 6 8 12 20 6 9 31 39 49 39 27 16 10 6 10 12 14 15 13 12 12 18 25 31 38 43 48 51 53 58 62 63 63
14 5 2 6 9 2 14 19 8 4 6 8 8 8 12 5 10 15 19 33 38 36 32 26 22 19 17 15 12 9 5 4 11 19 25 28 31 34 36 40 45 50 51 53
11 8 1 9 17 18 7 8 4 10 11 11 2 12 13 15 16 16 9 28 40 42 37 32 30 27 25 23 23 24 20 16 10 6 6 9 10 14 20 28 32 37 43 47
16 11 9 17 7 10 12 21 15 12 10 5 6 13 4 15 22 31 24 34 41 40 37 33 29 27 27 28 28 26 25 22 19 14 10 8 11 18 23 28 33 36 40 43
20 9 6 6 7 1 10 8 9 10 7 15 11 11 1 8 15 22 27 29 29 25 22 25 27 26 21 17 15 17 14 15 15 16 17 20 24 28 31 35 39 43 47 49
37 8 30 33 16 16 13 15 18 27 10 12 30 12 15 13 13 15 22 22 21 22 22 20 19 20 19 18 17 17 19 19 20 23 26 32 36 38 43 47 49 51 52 57
9 13 8 4 9 8 12 20 36 35 40 23 35 25 30 19 14 18 27 28 29 29 28 29 29 28 25 24 23 21 24 29 31 33 33 36 41 43 44 47 51 55 60 63
1 9 6 8 7 5 5 11 30 47 33 35 9 6 11 29 38 33 30 29 31 30 27 26 25 26 29 32 32 31 29 31 35 36 38 42 48 51 52 54 55 57 60 63
12 11 9 18 12 9 11 39 26 11 10 27 25 22 15 11 22 29 32 32 28 23 20 21 24 29 31 32 32 33 33 34 35 36 37 38 40 41 44 50 53 54 57 63
17 16 8 6 18 20 13 6 29 38 12 19 6 9 18 35 40 34 26 28 24 19 18 19 21 24 26 29 32 34 36 39 42 44 45 46 48 50 51 52 53 56 58 57
12 10 6 10 8 5 5 10 16 23 28 33 18 15 39 53 44 27 23 24 21 17 16 17 22 27 30 33 35 37 40 44 47 50 51 53 56 59 59 60 61 60 63 65
9 8 8 7 10 16 11 4 17 11 11 10 33 28 34 43 9 8 17 17 17 13 11 14 20 26 32 38 42 46 49 52 53 55 54 53 55 59 63 65 67 69 70 72
8 6 15 8 5 13 11 10 21 14 13 19 39 45 42 10 14 31 17 10 7 9 15 22 26 31 38 45 49 51 52 54 56 56 55 53 53 56 57 62 63 68 71 74
11 11 7 6 7 15 15 7 18 13 31 57 52 43 45 39 29 17 8 3 10 19 27 34 41 44 46 51 55 58 60 63 66 67 66 63 59 59 61 64 65 63 64 71
4 10 11 12 8 4 5 4 21 38 66 46 49 37 33 25 15 6 3 13 22 30 37 43 49 51 48 49 52 60 61 67 73 75 75 75 75 72 69 70 69 68 67 68
5 6 7 6 4 6 32 45 50 53 52 40 34 29 19 14 6 3 11 19 27 35 42 46 52 56 60 61 61 61 66 70 76 81 83 78 78 80 78 77 75 74 73 72
6 13 12 6 10 23 23 42 47 43 38 31 24 15 9 4 4 10 18 26 32 39 44 48 54 60 65 68 70 71 72 74 82 86 88 88 84 81 81 80 81 80 75 68
11 12 10 8 38 12 36 39 35 33 24 17 11 9 4 6 12 18 24 31 37 41 46 52 58 66 70 72 75 76 75 77 82 88 88 90 92 90 88 88 89 84 76 67
Wind_Direction_500mb
137 126 194 193 196 155 140 155 184 247 202 168 226 259 265 276 286 281 274 275 276 273 275 274 262 253 248 244 242 239 237 236 236 232 232 231 233 237 239 239 242 242 238 234
68 219 215 129 122 132 135 142 232 288 328 173 297 270 267 268 264 265 274 278 278 281 283 282 277 248 243 244 243 242 239 237 237 237 236 237 239 239 243 245 239 245 243 238
161 232 150 145 151 153 186 173 209 215 7 358 354 290 264 279 257 268 267 271 275 274 281 289 289 273 247 240 241 243 242 240 238 239 239 237 237 240 239 239 244 243 246 247
211 187 138 155 183 144 198 200 175 170 88 239 25 285 298 271 289 290 271 267 272 281 285 287 285 267 244 242 243 245 246 243 241 238 239 241 241 240 243 241 246 245 243 252
228 167 153 180 197 165 209 126 128 79 99 23 329 349 274 295 278 263 280 288 303 312 300 289 291 284 260 243 247 246 247 246 243 241 243 244 243 245 246 243 244 249 253 250
181 175 166 180 112 147 153 78 51 59 74 296 194 175 266 221 216 284 301 343 359 13 19 20 16 12 315 271 266 254 242 249 248 244 243 243 244 248 249 250 250 252 256 260
130 207 180 150 95 49 98 96 359 347 10 232 107 146 246 265 258 235 284 320 345 345 344 356 358 356 9 354 301 264 245 246 247 244 245 248 250 252 254 258 261 261 264 262
163 226 164 181 168 161 188 157 165 198 200 249 101 235 251 245 279 311 353 353 336 353 3 4 7 21 22 326 296 278 264 258 254 250 249 251 253 257 259 261 264 268 270 272
160 238 55 144 145 146 197 211 159 103 26 58 223 284 307 266 30 43 44 53 48 49 51 49 16 332 332 332 325 317 306 275 258 250 248 249 254 259 264 267 268 268 270 271
192 135 360 139 116 30 176 150 90 21 164 247 259 257 219 97 69 41 27 52 57 56 54 46 33 20 3 5 14 11 346 283 258 255 256 256 258 262 264 263 265 268 269 268
142 123 262 124 212 159 147 189 139 133 159 186 216 253 221 157 138 118 93 76 65 55 49 48 50 51 49 45 49 53 56 53 42 2 294 269 261 267 277 280 281 281 276 273
183 140 165 202 233 210 209 200 165 178 215 241 158 259 123 137 134 127 116 83 70 67 61 54 53 52 52 64 64 52 48 43 42 35 27 343 309 295 293 294 292 287 284 280
172 198 81 15 346 287 203 169 148 99 77 202 156 240 123 87 120 134 111 81 72 68 65 64 64 62 63 67 49 35 34 34 22 4 349 331 319 311 302 296 293 290 286 283
172 145 209 219 223 141 194 187 199 198 196 195 228 138 202 212 153 115 97 94 85 71 61 54 50 44 40 32 23 14 5 352 339 327 321 318 316 312 308 302 299 297 295 288
159 182 157 116 127 145 174 183 194 203 216 200 233 209 197 187 169 125 114 109 94 78 65 52 44 36 30 24 18 4 344 330 322 317 313 307 302 300 298 296 294 293 292 291
205 130 105 176 122 77 210 228 209 214 220 239 109 227 116 132 138 126 116 105 84 70 59 48 41 33 27 23 20 15 5 355 349 342 332 318 307 304 305 304 301 297 294 292
132 131 146 222 172 120 262 218 205 197 190 212 223 213 161 128 122 121 112 96 86 76 66 46 34 25 19 15 9 3 359 353 347 344 341 335 328 323 319 315 312 309 306 301
152 145 162 148 139 211 254 112 196 208 197 208 110 144 158 138 121 108 105 105 98 87 69 46 30 19 9 1 353 350 345 342 337 334 331 327 323 321 320 317 315 313 308 303
165 144 137 160 222 293 256 199 155 173 234 214 156 140 130 134 109 87 101 98 93 83 61 39 22 10 2 353 349 345 342 337 333 330 329 327 324 319 316 314 313 310 307 307
157 142 140 166 169 203 230 199 154 115 274 133 145 156 156 153 144 154 128 105 95 81 40 5 354 349 342 339 337 334 334 330 328 326 326 325 324 321 319 316 314 312 307 304
149 157 198 145 205 286 235 181 159 147 229 138 141 150 151 129 123 135 129 104 67 12 345 334 327 326 326 322 318 318 318 317 316 314 314 316 316 314 316 315 315 309 305 302
153 161 166 131 164 250 166 123 171 145 115 129 128 128 126 125 128 125 117 56 325 321 320 320 319 319 319 317 315 313 313 309 306 303 302 302 305 308 311 310 312 312 311 304
208 183 171 180 198 313 197 198 152 145 134 134 129 130 130 132 128 116 336 312 315 317 319 319 318 318 320 319 318 315 312 309 306 304 302 299 296 297 302 303 305 308 310 309
272 175 119 107 27 70 120 124 136 137 130 132 131 134 132 136 147 296 310 314 315 315 318 320 321 322 324 324 321 316 312 308 305 304 303 305 304 299 295 295 296 298 301 303
188 135 131 72 95 103 130 138 139 136 136 137 140 144 149 177 260 296 304 309 315 320 322 322 323 324 325 321 319 317 315 311 308 307 305 304 303 303 300 293 290 291 293 296
192 160 162 196 181 153 173 160 156 152 151 153 163 165 202 283 301 309 312 315 317 319 320 317 314 313 314 314 313 312 312 310 308 306 306 306 306 305 304 303 297 292 292 294
Wind_Speed_850mb
7 8 14 19 18 8 12 8 6 5 3 7 15 16 22 43 42 53 59 62 61 64 64 61 61 59 60 65 74 76 78 81 83 86 84 88 85 83 78 75 73 70 67 67
8 12 18 8 8 7 7 8 6 7 1 9 9 20 19 27 39 61 67 74 75 71 59 35 30 52 65 63 66 74 77 79 82 86 87 88 84 84 81 77 73 75 73 73
14 8 15 14 8 11 7 10 9 12 5 4 10 16 12 12 31 51 55 60 56 52 50 45 39 33 46 63 66 68 75 78 78 82 90 97 92 89 85 83 80 78 73 82
9 5 14 8 10 12 10 14 9 7 6 8 4 11 11 11 18 16 54 51 54 58 58 43 26 27 36 41 54 63 66 76 80 84 90 91 95 98 96 88 85 79 77 72
16 19 11 10 12 14 12 9 8 6 7 5 5 3 14 6 12 24 29 34 24 20 16 15 18 20 19 30 36 46 54 64 77 84 84 85 92 96 93 82 88 86 81 78
12 4 12 17 6 11 17 13 14 9 5 7 15 15 10 9 14 8 5 14 15 15 14 14 16 15 10 12 16 26 42 46 60 75 82 84 83 88 91 93 92 86 82 78
4 6 5 10 13 7 8 14 3 6 3 13 6 5 15 16 14 13 20 31 19 25 19 12 14 13 10 5 6 13 25 39 48 58 66 70 72 77 84 85 84 83 76 72
16 9 17 9 14 17 15 16 12 16 9 8 5 13 12 9 16 24 18 24 26 19 12 10 9 7 7 9 12 14 17 21 26 33 42 50 57 64 72 78 79 75 74 71
13 12 2 5 9 23 12 14 13 13 6 6 8 12 20 6 9 31 39 49 39 27 16 10 6 10 12 14 15 13 12 12 18 25 31 38 43 48 51 53 58 62 63 63
14 5 2 6 9 2 14 19 8 4 6 8 8 8 12 5 10 15 19 33 38 36 32 26 22 19 17 15 12 9 5 4 11 19 25 28 31 34 36 40 45 50 51 53
11 8 1 9 17 18 7 8 4 10 11 11 2 12 13 15 16 16 9 28 40 42 37 32 30 27 25 23 23 24 20 16 10 6 6 9 10 14 20 28 32 37 43 47
16 11 9 17 7 10 12 21 15 12 10 5 6 13 4 15 22 31 24 34 41 40 37 33 29 27 27 28 28 26 25 22 19 14 10 8 11 18 23 28 33 36 40 43
20 9 6 6 7 1 10 8 9 10 7 15 11 11 1 8 15 22 27 29 29 25 22 25 27 26 21 17 15 17 14 15 15 16 17 20 24 28 31 35 39 43 47 49
37 8 30 33 16 16 13 15 18 27 10 12 30 12 15 13 13 15 22 22 21 22 22 20 19 20 19 18 17 17 19 19 20 23 26 32 36 38 43 47 49 51 52 57
9 13 8 4 9 8 12 20 36 35 40 23 35 25 30 19 14 18 27 28 29 29 28 29 29 28 25 24 23 21 24 29 31 33 33 36 41 43 44 47 51 55 60 63
1 9 6 8 7 5 5 11 30 47 33 35 9 6 11 29 38 33 30 29 31 30 27 26 25 26 29 32 32 31 29 31 35 36 38 42 48 51 52 54 55 57 60 63
12 11 9 18 12 9 11 39 26 11 10 27 25 22 15 11 22 29 32 32 28 23 20 21 24 29 31 32 32 33 33 34 35 36 37 38 40 41 44 50 53 54 57 63
17 16 8 6 18 20 13 6 29 38 12 19 6 9 18 35 40 34 26 28 24 19 18 19 21 24 26 29 32 34 36 39 42 44 45 46 48 50 51 52 53 56 58 57
12 10 6 10 8 5 5 10 16 23 28 33 18 15 39 53 44 27 23 24 21 17 16 17 22 27 30 33 35 37 40 44 47 50 51 53 56 59 59 60 61 60 63 65
9 8 8 7 10 16 11 4 17 11 11 10 33 28 34 43 9 8 17 17 17 13 11 14 20 26 32 38 42 46 49 52 53 55 54 53 55 59 63 65 67 69 70 72
8 6 15 8 5 13 11 10 21 14 13 19 39 45 42 10 14 31 17 10 7 9 15 22 26 31 38 45 49 51 52 54 56 56 55 53 53 56 57 62 63 68 71 74
11 11 7 6 7 15 15 7 18 13 31 57 52 43 45 39 29 17 8 3 10 19 27 34 41 44 46 51 55 58 60 63 66 67 66 63 59 59 61 64 65 63 64 71
4 10 11 12 8 4 5 4 21 38 66 46 49 37 33 25 15 6 3 13 22 30 37 43 49 51 48 49 52 60 61 67 73 75 75 75 75 72 69 70 69 68 67 68
5 6 7 6 4 6 32 45 50 53 52 40 34 29 19 14 6 3 11 19 27 35 42 46 52 56 60 61 61 61 66 70 76 81 83 78 78 80 78 77 75 74 73 72
6 13 12 6 10 23 23 42 47 43 38 31 24 15 9 4 4 10 18 26 32 39 44 48 54 60 65 68 70 71 72 74 82 86 88 88 84 81 81 80 81 80 75 68
11 12 10 8 38 12 36 39 35 33 24 17 11 9 4 6 12 18 24 31 37 41 46 52 58 66 70 72 75 76 75 77 82 88 88 90 92 90 88 88 89 84 76 67
Wind_Direction_850mb
137 126 194 193 196 155 140 155 184 247 202 168 226 259 265 276 286 281 274 275 276 273 275 274 262 253 248 244 242 239 237 236 236 232 232 231 233 237 239 239 242 242 238 234
68 219 215 129 122 132 135 142 232 288 328 173 297 270 267 268 264 265 274 278 278 281 283 282 277 248 243 244 243 242 239 237 237 237 236 237 239 239 243 245 239 245 243 238
161 232 150 145 151 153 186 173 209 215 7 358 354 290 264 279 257 268 267 271 275 274 281 289 289 273 247 240 241 243 242 240 238 239 239 237 237 240 239 239 244 243 246 247
211 187 138 155 183 144 198 200 175 170 88 239 25 285 298 271 289 290 271 267 272 281 285 287 285 267 244 242 243 245 246 243 241 238 239 241 241 240 243 241 246 245 243 252
228 167 153 180 197 165 209 126 128 79 99 23 329 349 274 295 278 263 280 288 303 312 300 289 291 284 260 243 247 246 247 246 243 241 243 244 243 245 246 243 244 249 253 250
181 175 166 180 112 147 153 78 51 59 74 296 194 175 266 221 216 284 301 343 359 13 19 20 16 12 315 271 266 254 242 249 248 244 243 243 244 248 249 250 250 252 256 260
130 207 180 150 95 49 98 96 359 347 10 232 107 146 246 265 258 235 284 320 345 345 344 356 358 356 9 354 301 264 245 246 247 244 245 248 250 252 254 258 261 261 264 262
163 226 164 181 168 161 188 157 165 198 200 249 101 235 251 245 279 311 353 353 336 353 3 4 7 21 22 326 296 278 264 258 254 250 249 251 253 257 259 261 264 268 270 272
160 238 55 144 145 146 197 211 159 103 26 58 223 284 307 266 30 43 44 53 48 49 51 49 16 332 332 332 325 317 306 275 258 250 248 249 254 259 264 267 268 268 270 271
192 135 360 139 116 30 176 150 90 21 164 247 259 257 219 97 69 41 27 52 57 56 54 46 33 20 3 5 14 11 346 283 258 255 256 256 258 262 264 263 265 268 269 268
142 123 262 124 212 159 147 189 139 133 159 186 216 253 221 157 138 118 93 76 65 55 49 48 50 51 49 45 49 53 56 53 42 2 294 269 261 267 277 280 281 281 276 273
183 140 165 202 233 210 209 200 165 178 215 241 158 259 123 137 134 127 116 83 70 67 61 54 53 52 52 64 64 52 48 43 42 35 27 343 309 295 293 294 292 287 284 280
172 198 81 15 346 287 203 169 148 99 77 202 156 240 123 87 120 134 111 81 72 68 65 64 64 62 63 67 49 35 34 34 22 4 349 331 319 311 302 296 293 290 286 283
172 145 209 219 223 141 194 187 199 198 196 195 228 138 202 212 153 115 97 94 85 71 61 54 50 44 40 32 23 14 5 352 339 327 321 318 316 312 308 302 299 297 295 288
159 182 157 116 127 145 174 183 194 203 216 200 233 209 197 187 169 125 114 109 94 78 65 52 44 36 30 24 18 4 344 330 322 317 313 307 302 300 298 296 294 293 292 291
205 130 105 176 122 77 210 228 209 214 220 239 109 227 116 132 138 126 116 105 84 70 59 48 41 33 27 23 20 15 5 355 349 342 332 318 307 304 305 304 301 297 294 292
132 131 146 222 172 120 262 218 205 197 190 212 223 213 161 128 122 121 112 96 86 76 66 46 34 25 19 15 9 3 359 353 347 344 341 335 328 323 319 315 312 309 306 301
152 145 162 148 139 211 254 112 196 208 197 208 110 144 158 138 121 108 105 105 98 87 69 46 30 19 9 1 353 350 345 342 337 334 331 327 323 321 320 317 315 313 308 303
165 144 137 160 222 293 256 199 155 173 234 214 156 140 130 134 109 87 101 98 93 83 61 39 22 10 2 353 349 345 342 337 333 330 329 327 324 319 316 314 313 310 307 307
157 142 140 166 169 203 230 199 154 115 274 133 145 156 156 153 144 154 128 105 95 81 40 5 354 349 342 339 337 334 334 330 328 326 326 325 324 321 319 316 314 312 307 304
149 157 198 145 205 286 235 181 159 147 229 138 141 150 151 129 123 135 129 104 67 12 345 334 327 326 326 322 318 318 318 317 316 314 314 316 316 314 316 315 315 309 305 302
153 161 166 131 164 250 166 123 171 145 115 129 128 128 126 125 128 125 117 56 325 321 320 320 319 319 319 317 315 313 313 309 306 303 302 302 305 308 311 310 312 312 311 304
208 183 171 180 198 313 197 198 152 145 134 134 129 130 130 132 128 116 336 312 315 317 319 319 318 318 320 319 318 315 312 309 306 304 302 299 296 297 302 303 305 308 310 309
272 175 119 107 27 70 120 124 136 137 130 132 131 134 132 136 147 296 310 314 315 315 318 320 321 322 324 324 321 316 312 308 305 304 303 305 304 299 295 295 296 298 301 303
188 135 131 72 95 103 130 138 139 136 136 137 140 144 149 177 260 296 304 309 315 320 322 322 323 324 325 321 319 317 315 311 308 307 305 304 303 303 300 293 290 291 293 296
192 160 162 196 181 153 173 160 156 152 151 153 163 165 202 283 301 309 312 315 317 319 320 317 314 313 314 314 313 312 312 310 308 306 306 306 306 305 304 303 297 292 292 294